[[{"header":{"parameterUnit":"m.s-1","parameterCategory":1,"la1":30.2991,"la2":30.254,"lo1":-89.0895,"lo2":-89.0444,"dy":0.0017,"dx":0.0017,"nx":28,"ny":28,"refTime":"2023-04-27T21:00:00:Z","depth":0,"parameterNumber":2,"parameterNumberName":"U-component_of_WINDS"},"data":[0,0,0,0,0,0,0,0,0,0,0,0,0,0,0,0,0,0,0,0,0,0,0,0,0,0,0,0,0,0,0,0,0,0,0,0,0,0,0,0,0,0,0,0,0,0,0,0,0,0,0,0,0,0,0,0,0,0,-1.2685,-1.2685,0,-1.2708,-1.2708,-1.2709,-1.2709,-1.2709,-1.2709,-1.2709,-1.2732,-1.2733,-1.2734,0,0,0,0,0,0,0,0,0,0,0,0,0,-1.2643,-1.2644,-1.2685,-1.2685,-1.2686,-1.2708,-1.2708,-1.2709,-1.2709,-1.2709,-1.2709,-1.2708,-1.2732,-1.2733,-1.2734,0,0,0,0,0,0,0,0,0,0,0,0,0,-1.2663,-1.2644,-1.2685,-1.2689,-1.2689,-1.2708,-1.2708,-1.2709,-1.2709,-1.2709,-1.2709,-1.2708,-1.2731,-1.2733,-1.2734,-1.275,0,0,-1.2738,-1.2739,0,0,0,0,0,0,0,0,-1.2662,-1.2665,-1.2688,-1.2689,-1.2689,-1.2705,-1.2702,-1.2723,-1.271,-1.2702,-1.2708,-1.2708,-1.2723,-1.2725,-1.2731,-1.2752,-1.2753,-1.2738,-1.2739,-1.2739,-1.274,0,0,0,0,0,0,0,-1.2661,-1.2664,-1.2694,-1.2688,-1.2689,-1.269,-1.2692,-1.2706,-1.2715,-1.2702,-1.2703,-1.2705,-1.2724,-1.2729,-1.2731,-1.2753,-1.2738,-1.2739,-1.274,-1.2741,-1.2791,-1.2791,0,0,0,0,0,0,-1.2659,-1.2663,-1.2693,-1.2695,-1.2674,-1.2691,-1.2693,-1.2701,-1.2715,-1.2716,-1.2706,-1.2705,-1.2727,-1.273,-1.2732,-1.2753,-1.2739,-1.2741,-1.2741,-1.279,-1.2791,-1.2791,0,0,0,0,0,0,-1.2658,-1.2661,-1.2693,-1.2679,-1.2683,-1.2692,-1.27,-1.2701,-1.2707,-1.2717,-1.2719,-1.271,-1.2727,-1.273,-1.2746,-1.2754,-1.2741,-1.2742,-1.2789,-1.279,-1.2791,-1.2796,0,0,0,0,0,0,-1.2657,-1.2661,-1.2667,-1.2679,-1.2684,-1.2706,-1.27,-1.2702,-1.2709,-1.2709,-1.2721,-1.2723,-1.2727,-1.2744,-1.2748,-1.2756,-1.2744,-1.2789,-1.279,-1.2791,-1.2795,-1.2796,-1.2798,0,0,0,0,0,-1.2655,-1.2667,-1.2667,-1.2671,-1.2691,-1.2706,-1.2709,-1.2714,-1.271,-1.2716,-1.2723,-1.2722,-1.2753,-1.2746,-1.275,-1.2758,-1.2788,-1.2789,-1.2791,-1.2794,-1.2796,-1.2798,0,0,0,0,0,0,-1.2655,-1.2668,-1.2669,-1.2685,-1.2695,-1.2707,-1.2715,-1.2715,-1.2726,-1.2726,-1.2731,-1.2734,-1.275,-1.2756,-1.2748,-1.2776,-1.277,-1.2772,-1.2771,-1.2773,-1.2775,-1.2773,-1.2745,0,0,0,0,0,-1.2657,-1.2668,-1.2679,-1.2692,-1.2697,-1.2705,-1.2712,-1.2715,-1.2725,-1.2729,-1.2737,-1.2747,-1.2759,-1.2767,-1.2778,-1.2796,-1.2799,-1.2804,-1.2805,-1.2807,-1.2808,-1.2819,-1.2822,-1.2795,-1.2795,-1.2795,0,0,-1.2661,-1.267,-1.2676,-1.2693,-1.27,-1.2712,-1.2708,-1.2721,-1.273,-1.2731,-1.2747,-1.2753,-1.2765,-1.2782,-1.279,-1.2788,-1.2816,-1.2808,-1.2809,-1.281,-1.2821,-1.2823,-1.2826,-1.2796,-1.2796,-1.2796,0,0,-1.2674,-1.2681,-1.2694,-1.2702,-1.2714,-1.272,-1.2723,-1.2735,-1.274,-1.2756,-1.2757,-1.2768,-1.2789,-1.2797,-1.2804,-1.2823,-1.2823,-1.2827,-1.2835,-1.2846,-1.2848,-1.285,-1.2857,-1.286,-1.2828,-1.2829,-1.2829,0,-1.2677,-1.2695,-1.27,-1.2713,-1.2721,-1.2723,-1.2736,-1.2744,-1.2759,-1.2765,-1.2762,-1.2788,-1.2796,-1.2816,-1.2821,-1.2827,-1.2831,-1.2825,-1.2847,-1.2849,-1.2851,-1.2858,-1.2861,-1.2829,-1.2829,-1.2829,-1.2829,0,-1.2699,-1.2711,-1.272,-1.2735,-1.2744,-1.2757,-1.2765,-1.2773,-1.2776,-1.2782,-1.2799,-1.2809,-1.2824,-1.2829,-1.2831,-1.285,-1.2848,-1.2846,-1.284,-1.2854,-1.2861,-1.2863,-1.2829,-1.2829,-1.2829,-1.2829,0,0,-1.2711,-1.2731,-1.2734,-1.2741,-1.2756,-1.2766,-1.278,-1.2794,-1.2801,-1.2812,-1.2824,-1.2843,-1.2841,-1.285,-1.2853,-1.2863,-1.2878,-1.286,-1.286,-1.2863,-1.2901,-1.2902,-1.2905,-1.2879,-1.2879,-1.288,-1.29,0,-1.2727,-1.2751,-1.2757,-1.2777,-1.279,-1.2793,-1.2805,-1.2816,-1.2822,-1.2834,-1.2841,-1.2854,-1.2851,-1.2857,-1.2866,-1.2874,-1.2886,-1.2873,-1.2891,-1.2891,-1.2888,-1.2909,-1.291,-1.2928,-1.2903,-1.2903,-1.2903,0,-1.2747,-1.2759,-1.2781,-1.2796,-1.2801,-1.2812,-1.2826,-1.2837,-1.285,-1.2854,-1.2864,-1.2867,-1.2883,-1.2877,-1.2898,-1.2889,-1.2897,-1.2903,-1.2903,-1.2905,-1.2898,-1.2911,-1.2934,-1.2937,-1.2908,-1.2907,-1.2907,0,-1.2755,-1.2777,-1.2793,-1.28,-1.2817,-1.2824,-1.2832,-1.2844,-1.2853,-1.2866,-1.2872,-1.2886,-1.2894,-1.2905,-1.2913,-1.2907,-1.2934,-1.2928,-1.2939,-1.2938,-1.2944,-1.2943,-1.2968,-1.2949,-1.2949,-1.2948,-1.2948,0,-1.2771,-1.2785,-1.2797,-1.2807,-1.2823,-1.283,-1.2846,-1.2854,-1.2865,-1.2877,-1.2881,-1.2892,-1.2901,-1.2914,-1.292,-1.2938,-1.2941,-1.2946,-1.2947,-1.2945,-1.2945,-1.295,-1.2949,-1.2949,-1.2949,-1.2949,-1.2949,0,-1.2782,-1.2791,-1.2809,-1.2824,-1.2829,-1.284,-1.2853,-1.2863,-1.2871,-1.2886,-1.289,-1.2902,-1.2918,-1.2926,-1.2946,-1.295,-1.297,-1.297,-1.2965,-1.2966,-1.2976,-1.2975,-1.3006,-1.301,-1.2987,-1.2987,-1.2988,0,-1.2792,-1.2803,-1.282,-1.2828,-1.2836,-1.2849,-1.2859,-1.2867,-1.2877,-1.2893,-1.2902,-1.2918,-1.2931,-1.2956,-1.2966,-1.2982,-1.2983,-1.2993,-1.2985,-1.2984,-1.2984,-1.2983,-1.2985,-1.2994,-1.2994,-1.2994,-1.2994,0,-1.2809,-1.2813,-1.2826,-1.2842,-1.2853,-1.2865,-1.2877,-1.2884,-1.2895,-1.2905,-1.2922,-1.2932,-1.2953,-1.2969,-1.2985,-1.2994,-1.2996,-1.2997,-1.3,-1.2998,-1.2995,-1.2998,-1.2969,-1.2996,-1.2996,-1.2996,-1.2995,-1.2995,-1.282,-1.283,-1.2844,-1.2859,-1.2869,-1.2881,-1.2892,-1.2901,-1.2915,-1.2932,-1.2937,-1.2954,-1.2968,-1.2991,-1.3,-1.3014,-1.3012,-1.3017,-1.3018,-1.3019,-1.302,-1.2993,-1.3017,-1.3017,-1.3017,-1.3017,-1.3017,0,-1.2838,-1.2847,-1.2861,-1.2878,-1.2891,-1.2892,-1.2906,-1.2916,-1.2932,-1.2945,-1.2958,-1.2977,-1.2994,-1.3006,-1.3023,-1.3032,-1.3033,-1.3036,-1.3035,-1.3037,-1.302,-1.3016,-1.3034,-1.3034,-1.3034,-1.3034,-1.3034,-1.3034,-1.2849,-1.2866,-1.2872,-1.2896,-1.2905,-1.2922,-1.293,-1.2942,-1.2952,-1.2974,-1.2987,-1.2995,-1.3008,-1.3026,-1.3042,-1.3045,-1.3051,-1.3054,-1.3057,-1.304,-1.3039,-1.3037,-1.3033,-1.3055,-1.3055,-1.3074,-1.3074,-1.3074]},{"header":{"parameterUnit":"m.s-1","parameterCategory":1,"la1":30.2991,"la2":30.254,"lo1":-89.0895,"lo2":-89.0444,"dy":0.0017,"dx":0.0017,"nx":28,"ny":28,"refTime":"2023-04-27T21:00:00:Z","depth":0,"parameterNumber":3,"parameterNumberName":"V-component_of_WINDS"},"data":[0,0,0,0,0,0,0,0,0,0,0,0,0,0,0,0,0,0,0,0,0,0,0,0,0,0,0,0,0,0,0,0,0,0,0,0,0,0,0,0,0,0,0,0,0,0,0,0,0,0,0,0,0,0,0,0,0,0,3.0658,3.0657,0,3.0591,3.0591,3.059,3.0513,3.0512,3.0511,3.051,3.0439,3.0439,3.0438,0,0,0,0,0,0,0,0,0,0,0,0,0,3.0717,3.0716,3.0658,3.0657,3.0656,3.0592,3.0591,3.059,3.0513,3.0512,3.051,3.0509,3.044,3.0439,3.0438,0,0,0,0,0,0,0,0,0,0,0,0,0,3.0675,3.0716,3.0658,3.061,3.0605,3.0592,3.0591,3.0589,3.0514,3.0512,3.051,3.0508,3.044,3.0439,3.0438,3.0465,0,0,3.0434,3.0433,0,0,0,0,0,0,0,0,3.0677,3.0673,3.0618,3.0614,3.0608,3.0559,3.0585,3.0548,3.0514,3.0548,3.051,3.0508,3.048,3.0476,3.0467,3.0462,3.0459,3.0434,3.0433,3.0433,3.0432,0,0,0,0,0,0,0,3.068,3.0675,3.0632,3.0618,3.0611,3.0592,3.0584,3.0578,3.0525,3.0545,3.054,3.0533,3.0477,3.0468,3.0465,3.0457,3.0434,3.0433,3.0432,3.0432,3.0471,3.0473,0,0,0,0,0,0,3.0691,3.0678,3.0634,3.063,3.0639,3.0592,3.0583,3.0576,3.0525,3.0515,3.0534,3.0529,3.0471,3.0466,3.0462,3.0491,3.0433,3.0431,3.0431,3.0469,3.0471,3.0473,0,0,0,0,0,0,3.0692,3.0688,3.0636,3.0652,3.0644,3.0593,3.0586,3.0576,3.0567,3.0516,3.0506,3.0535,3.047,3.0464,3.0465,3.0487,3.0431,3.043,3.0467,3.047,3.0472,3.0549,0,0,0,0,0,0,3.0694,3.0689,3.0699,3.0653,3.0644,3.0641,3.0587,3.0576,3.0565,3.0558,3.0515,3.0506,3.0468,3.0467,3.0464,3.0485,3.0429,3.0465,3.0468,3.0472,3.0544,3.0553,3.0562,0,0,0,0,0,3.0697,3.0722,3.07,3.0695,3.0656,3.0643,3.0637,3.0594,3.0568,3.0577,3.0545,3.0507,3.0485,3.0468,3.0463,3.0484,3.0463,3.0467,3.0471,3.054,3.0552,3.0562,0,0,0,0,0,0,3.0771,3.0716,3.069,3.0702,3.0678,3.063,3.0641,3.0608,3.059,3.0584,3.053,3.0521,3.0529,3.0506,3.0488,3.0508,3.0469,3.0472,3.0522,3.0533,3.0542,3.0547,3.0428,0,0,0,0,0,3.0789,3.0784,3.0735,3.075,3.074,3.0693,3.0685,3.0654,3.0627,3.0616,3.0583,3.0558,3.0545,3.0538,3.0523,3.054,3.0529,3.0552,3.0561,3.0569,3.0572,3.058,3.0589,3.0486,3.0486,3.0486,0,0,3.0826,3.0795,3.0795,3.0765,3.0742,3.0738,3.0684,3.0682,3.0677,3.0615,3.0615,3.059,3.0558,3.0567,3.0569,3.0549,3.0598,3.0574,3.058,3.0579,3.0585,3.0595,3.0603,3.0489,3.0489,3.0488,0,0,3.0891,3.0867,3.0877,3.0856,3.0823,3.0792,3.0794,3.0751,3.0733,3.0732,3.0685,3.0679,3.0658,3.0637,3.0624,3.0681,3.0646,3.0678,3.0725,3.0733,3.0741,3.0748,3.0768,3.0777,3.0681,3.0682,3.0682,0,3.0941,3.0933,3.0886,3.0887,3.0875,3.0819,3.0828,3.081,3.0774,3.0767,3.0744,3.0717,3.0691,3.0695,3.0709,3.07,3.0701,3.0683,3.0743,3.075,3.0756,3.0775,3.0783,3.0686,3.0685,3.0685,3.0684,0,3.0996,3.0991,3.1003,3.097,3.0959,3.0965,3.0919,3.0913,3.0883,3.0854,3.0853,3.082,3.0798,3.0797,3.0767,3.0796,3.0785,3.0754,3.0713,3.077,3.0788,3.0795,3.0692,3.069,3.0689,3.0688,0,0,3.1106,3.1048,3.1053,3.1038,3.0998,3.0993,3.0995,3.0974,3.0971,3.0948,3.0948,3.0932,3.0903,3.0888,3.0855,3.0862,3.091,3.083,3.0828,3.0846,3.0941,3.0966,3.0975,3.0886,3.0888,3.0889,3.0944,0,3.1164,3.1165,3.1124,3.1137,3.1132,3.1078,3.108,3.1056,3.1028,3.1019,3.0989,3.0978,3.0941,3.0931,3.0936,3.0904,3.0929,3.0899,3.0886,3.0886,3.0897,3.0984,3.1009,3.1063,3.095,3.0952,3.0952,0,3.1232,3.1214,3.1226,3.1186,3.1182,3.1185,3.1163,3.1155,3.1126,3.1105,3.1089,3.1052,3.105,3.1012,3.101,3.0991,3.0983,3.0966,3.0967,3.0965,3.0923,3.0984,3.1079,3.1088,3.0962,3.0962,3.0961,0,3.1312,3.129,3.1295,3.1283,3.1236,3.1239,3.122,3.1189,3.1179,3.1159,3.1153,3.1133,3.1122,3.1107,3.1066,3.1042,3.1068,3.1026,3.1051,3.1052,3.1059,3.106,3.1156,3.1054,3.1054,3.1054,3.1054,0,3.1381,3.1391,3.133,3.1334,3.1343,3.1295,3.1305,3.128,3.1253,3.125,3.1202,3.12,3.1145,3.1137,3.1104,3.1107,3.1102,3.1086,3.1077,3.109,3.1093,3.1085,3.108,3.1056,3.1055,3.1055,3.1055,0,3.1472,3.1432,3.1434,3.1389,3.1378,3.1387,3.1348,3.1349,3.1319,3.1316,3.1312,3.1265,3.1252,3.1209,3.1186,3.1164,3.1177,3.116,3.1188,3.1182,3.121,3.1208,3.1304,3.1315,3.1206,3.1207,3.1208,0,3.1519,3.1526,3.1482,3.1477,3.146,3.1452,3.1442,3.1395,3.1386,3.1354,3.1359,3.1343,3.1327,3.131,3.1273,3.1255,3.1237,3.1272,3.1234,3.1248,3.1238,3.1239,3.1239,3.1281,3.1282,3.1283,3.1284,0,3.1608,3.1588,3.1576,3.1557,3.1547,3.1529,3.1509,3.1508,3.1455,3.1447,3.1435,3.1423,3.14,3.1385,3.1361,3.1339,3.1303,3.1296,3.1301,3.1315,3.1331,3.1324,3.1211,3.1294,3.1293,3.1293,3.1292,3.1292,3.1679,3.1682,3.1652,3.164,3.162,3.1603,3.1602,3.1571,3.156,3.1538,3.1511,3.1502,3.1472,3.1436,3.1418,3.1409,3.1389,3.1396,3.1398,3.1401,3.1407,3.1333,3.1405,3.1404,3.1404,3.1404,3.1403,0,3.1765,3.1743,3.1733,3.1707,3.1697,3.1665,3.164,3.1635,3.1628,3.1603,3.159,3.1575,3.156,3.1522,3.1503,3.1504,3.1487,3.1501,3.1501,3.1496,3.1426,3.1424,3.1515,3.1515,3.1515,3.1515,3.1515,3.1515,3.1809,3.1814,3.179,3.1784,3.1761,3.1753,3.1742,3.1725,3.1706,3.1692,3.168,3.1655,3.1625,3.1604,3.1589,3.1578,3.1573,3.1593,3.1577,3.1512,3.1501,3.1491,3.1489,3.1592,3.1592,3.1647,3.1648,3.1648]}]]